Location: Saluda
(35.2377°N, 82.3468°W)
Time: 16:57:43
(UTC+00:00)

Explorer 11/Cluster Stage 4 - Pass Details

Date: 06 October 2022
Orbit: 466 x 1247 km, 28.8° (Epoch: 08 December)

Event Time Altitude Azimuth Distance (km) Brightness Sun altitude
Rises 14:45:08 0° 230° (SW) 4,041 10.1 36.0°
Reaches altitude 10° 14:48:11 10° 222° (SW) 3,144 9.8 36.4°
Maximum altitude 14:55:17 35° 160° (SSE) 1,898 10.1 37.5°
Drops below altitude 10° 15:02:25 10° 99° (E) 3,163 10.5 38.5°
Sets 15:05:29 0° 90° (E) 4,070 10.7 39.0°
